Location: Gull Harbor
(47.1000°N, 122.9000°W)
Time: 11:34:30
(UTC-07:00)

Envisat - Pass Details

Date: 27 March 2019
Orbit: 764 x 766 km, 98.1° (Epoch: 16 October)

Event Time Altitude Azimuth Distance (km) Brightness Sun altitude
Rises 20:13:27 0° 183° (S) 3,217 6.1 -7.5°
Reaches altitude 10° 20:15:50 10° 189° (S) 2,295 5.4 -7.9°
Maximum altitude 20:20:40 45° 262° (W) 1,043 4.3 -8.7°
Drops below altitude 10° 20:25:33 10° 335° (NNW) 2,313 6.1 -9.5°
Sets 20:27:58 0° 341° (NNW) 3,245 6.8 -9.9°
